Flag for U.S.A. Weather past 2 weeks in Sioux Falls, South Dakota, U.S.A.

Now
29 °F

Passing clouds.


Feels Like: 18 °F
Forecast: -8 / 23 °F
Wind: 15 mph from Southwest

Location: Foss Field

Current Time: Mar 5, 2015 at 4:46:31 PM

Latest Report: Mar 5, 2015 at 3:56 PM


Visibility: 10 mi

Pressure: 30.38 "Hg

Humidity: 34%

Dew point: 4 °F

Location of Sioux FallsLocation

Historic Weather in Sioux Falls — Graph

°F

Sioux Falls temperature yesterday

Maximum temperature yesterday: 12 °F (at 10:56 AM)
Minimum temperature yesterday: -6 °F (at 11:56 PM)
Average temperature yesterday: 4 °F

Past Weeks' High & Low Weather Summary

 TemperatureHumidityPressure
High45 °F (Feb 20, 1:56 PM)96% (Mar 3, 7:04 AM)30.88 "Hg (Mar 3, 7:04 AM)
Low-11 °F (Feb 27, 5:56 AM)32% (Feb 23, 2:56 PM)29.66 "Hg (Mar 3, 7:04 AM)
Average14 °F67%30.30 "Hg
* Reported Feb 18 2:56 PM — Mar 5 2:56 PM, Sioux Falls, Weather by CustomWeather, © 2015

Note: Actual official high and low records may vary slightly from our data, if they occured in-between our weather recording intervals... More about our weather records

Advertising

Sioux Falls weather history for previous 24 hours

 ConditionsComfort  
Time TempWeatherWind HumidityBarometerVisibility
2:56 PM
Thu, Mar 5
26 °FSunny.15 mph42%30.40 "Hg10 mi
1:56 PM23 °FSunny.10 mph46%30.44 "Hg10 mi
12:56 PM20 °FSunny.12 mph48%30.49 "Hg10 mi
11:56 AM16 °FSunny.12 mph56%30.53 "Hg10 mi
10:56 AM12 °FSunny.8 mph58%30.55 "Hg10 mi
9:56 AM6 °FSunny.9 mph66%30.57 "Hg10 mi
8:56 AM2 °FSunny.8 mph69%30.58 "Hg10 mi
7:56 AM-4 °FSunny.No wind83%30.57 "Hg10 mi
6:56 AM-8 °FPassing clouds.No wind74%30.57 "Hg10 mi
5:56 AM-9 °FClear.No wind78%30.57 "Hg10 mi
4:56 AM-9 °FClear.No wind78%30.55 "Hg10 mi
3:56 AM-9 °FClear.No wind74%30.55 "Hg10 mi
2:56 AM-8 °FClear.3 mph78%30.55 "Hg10 mi
1:56 AM-7 °FClear.3 mph79%30.55 "Hg10 mi
12:56 AM-6 °FClear.3 mph78%30.55 "Hg10 mi
11:56 PM
Wed, Mar 4
-6 °FClear.No wind78%30.55 "Hg10 mi
10:56 PM-3 °FClear.3 mph75%30.56 "Hg10 mi
9:56 PM-3 °FClear.No wind75%30.56 "Hg10 mi
8:56 PM0 °FClear.5 mph71%30.52 "Hg10 mi
7:56 PM1 °FClear.7 mph68%30.49 "Hg10 mi
6:56 PM3 °FClear.10 mph62%30.47 "Hg10 mi
5:56 PM5 °FPassing clouds.14 mph60%30.46 "Hg10 mi
4:56 PM7 °FScattered clouds.22 mph57%30.45 "Hg10 mi
Weather by CustomWeather, © 2015

See weather overviewHow to use our weather pages